Regional Weather Roundup
Issued by NWS Kansas City/Pleasant Hill, MO

Home | Current Version | Previous Version | Text Only | Print | Product List | Glossary On
Versions: 1 2 3 4 5 6 7 8 9 10 11 12 13 14 15 16 17 18 19 20 21 22 23 24 25 26 27 28 29 30 31 32 33 34 35 36 37 38 39 40 41 42 43 44 45 46 47 48 49 50
133
ASUS43 KEAX 280810
RWREAX

WEATHER ROUNDUP FOR EASTERN KANSAS AND NORTHWEST MISSOURI
NATIONAL WEATHER SERVICE KANSAS CITY/PLEASANT HILL MO
300 AM CDT TUE MAR 28 2017

KSZ040-057-103>105-MOZ028-029-037-043-280900-
...KANSAS CITY METROPOLITAN AREA...

CITY           SKY/WX    TMP DP  RH WIND       PRES   REMARKS
K.C. INTL      CLOUDY    49  45  86 N5        30.02S
K.C. DOWNTOWN  CLOUDY    50  48  93 N6        30.02S FOG
LEES SUMMIT    CLOUDY    49  47  93 N7        30.02F
OLATHE - IXD   CLOUDY    49  45  86 N7        30.02F
OLATHE - OJC   CLOUDY    48  48 100 N6        30.01F FOG
LAWRENCE       CLOUDY    50  45  83 N6        30.02F

$$

MOZ001>008-011>017-020>025-030>033-038>040-044>046-053-054-280900-
...NORTHERN AND CENTRAL MISSOURI...

CITY           SKY/WX    TMP DP  RH WIND       PRES   REMARKS
ST. JOSEPH     CLOUDY    47  46  97 CALM      30.04S
WARRENSBURG    CLOUDY    48  46  93 NW5       30.02R
WHITEMAN AFB   CLOUDY    50  50 100 N7        30.00R
CLINTON        LGT RAIN  50  50 100 N3        30.02R
SEDALIA        CLOUDY    50  49  96 N6        30.01R
WARSAW         NOT AVBL
CHILLICOTHE      N/A     48  46  93 N5        30.03S
KIRKSVILLE     CLOUDY    48  47  96 N5        30.02R FOG

$$

MOZ041-047>049-056>058-063>065-088>090-097-280900-
...EASTERN AND SOUTHERN MISSOURI...

CITY           SKY/WX    TMP DP  RH WIND       PRES   REMARKS
ST. LOUIS INTL CLOUDY    54  49  83 N12       29.98S
SPIRIT OF STL  CLOUDY    53  52  96 N8        29.97S
COLUMBIA       CLOUDY    51  50  96 N7        29.98R
JEFFERSON CITY CLOUDY    55  50  83 NE5       29.98R
ROLLA          CLOUDY    52  52 100 N6        29.96R FOG
OSAGE BEACH    MIX PCPN N/A N/A N/A W5        29.99R
SPRINGFIELD    CLOUDY    51  49  92 N6        29.98R
BRANSON        CLOUDY    50  50 100 CALM      29.98S FOG
JOPLIN         CLOUDY    51  50  96 NE5       29.99S
WEST PLAINS    CLOUDY    52  50  93 NW3       29.97R

$$

IAZ060-094-KSZ022-034>040-054-083-096-NEZ052-066-093-280900-
...KANSAS...SOUTHEAST NEBRASKA AND IOWA...

CITY           SKY/WX    TMP DP  RH WIND       PRES   REMARKS
TOPEKA         CLOUDY    50  46  86 NE3       30.02S
MANHATTAN      CLOUDY    50  46  86 NE6       30.00F
EMPORIA        CLOUDY    50  48  93 NE8       29.99S
CHANUTE        CLOUDY    52  46  80 NE7       29.99S
WICHITA        CLOUDY    51  45  79 E8        29.98S
OMAHA          MOCLDY    35  32  88 NW7       30.05R WCI  29
LINCOLN        CLOUDY    34  33  96 N7        30.05S WCI  28
FALLS CITY     CLOUDY    47  42  83 CALM      30.02F
LAMONI         CLOUDY    46  42  86 N6        30.03R
DES MOINES     CLOUDY    47  41  80 NE3       30.04S

$$





USA.gov is the U.S. government's official web portal to all federal, state and local government web resources and services.